www.pogodaiklimat.ru

Погода и климат >> Архив погоды >> Россия >> Иркутская область >> Инга


АРХИВ ПОГОДЫ в Инге

Время (UTC), дата Ветер
(напр.,м/с)
 
Видим.   Явления Облачность Т
(С)
Тd
(С)
f
(%)
Тe
(С)
Тes
(С)
Комфортность P
(гПа)
Po
(гПа)
Тmin
(С)
Tmax
(С)
R
(мм)
R24
(мм)
S
(см)
06 12.02 С 2 50 км ясно -20.1 -27.9 50 -26 -23 1039.7 966.6
09 12.02 СВ 2 20 км ясно -19.0 -28.0 45 -25 -24 1038.3 965.8
12 12.02 штиль 0 н/о ясно -28.4 -32.2 70 -28 -28 1041.1 965.5 -18.0
15 12.02 штиль 0 н/о ясно -33.6 -37.2 70 -34 -34 опасность
обморожения
1042.1 964.9
18 12.02 штиль 0 н/о ясно -37.0 -40.4 70 -37 -37 опасность
обморожения
1043.4 965.1
21 12.02 штиль 0 н/о ясно -38.5 -42.0 69 -39 -39 опасность
обморожения
1044.7 965.8
00 13.02 штиль 0 н/о ясно -39.6 -43.6 65 -40 -40 опасность
обморожения
1046.6 967.2 -39.7 26
03 13.02 штиль 0 50 км 1/0
[Ci fib]
-29.4 -33.9 65 -29 -27 1044.1 968.0 -40.3
06 13.02 штиль 0 50 км 1/0
[Ci fib]
-9.8 -24.9 28 -10 -5 1037.4 967.3
09 13.02 СВ 2 50 км 1/0
[Cc]
-9.6 -23.3 32 -14 -13 1037.2 967.1
12 13.02 штиль 0 н/о ясно -21.5 -25.5 70 -22 -22 1041.8 968.2 -7.1
15 13.02 штиль 0 н/о ясно -28.3 -31.3 75 -28 -28 1044.5 968.7
18 13.02 штиль 0 н/о 4/0
[Ci sp]
-30.3 -34.1 69 -30 -30 1044.6 968.2
21 13.02 штиль 0 н/о 3/0
[Ci sp]
-31.0 -34.8 69 -31 -31 опасность
обморожения
1044.6 968.0
00 14.02 штиль 0 н/о 3/0
[Ci fib]
-31.2 -35.0 69 -31 -31 опасность
обморожения
1045.1 968.5 -31.3 26
03 14.02 ЮЗ 2 50 км 10/0
[Ci]
-24.0 -28.0 69 -30 -29 1043.6 969.2 -31.6
06 14.02 штиль 0 50 км 8/0
[Ci sp]
-8.6 -25.3 25 -9 -5 1038.1 968.2
09 14.02 СВ 4 50 км 3/0
[Cc]
-9.8 -26.2 25 -16 -16 1038.0 967.9
12 14.02 штиль 0 н/о 1/0
[Ci fib]
-19.2 -24.1 65 -19 -19 1041.1 968.3 -7.4
15 14.02 штиль 0 н/о 1/0
[Ci fib]
-25.2 -28.4 75 -25 -25 1043.7 969.0
18 14.02 штиль 0 н/о ясно -27.8 -31.0 74 -28 -28 1044.4 968.7
21 14.02 ЮЗ 2 н/о ясно -28.1 -31.2 75 -35 -35 опасность
обморожения
1044.0 968.4
00 15.02 штиль 0 н/о 3/0
[Ci sp]
-30.2 -33.2 75 -30 -30 1045.1 968.8 -30.3 26
03 15.02 штиль 0 50 км ясно -18.9 -25.7 55 -19 -16 1041.7 968.8 -31.0
06 15.02 штиль 0 50 км ясно -7.7 -20.8 34 -8 -3 1036.9 967.4
09 15.02 СВ 2 50 км ясно -6.5 -20.7 31 -10 -10 1036.1 966.8
12 15.02 штиль 0 н/о ясно -17.2 -21.4 70 -17 -17 1039.0 966.8 -5.6
15 15.02 штиль 0 н/о ясно -22.5 -24.3 85 -23 -23 1040.6 966.8
18 15.02 штиль 0 н/о ясно -26.0 -27.8 85 -26 -26 1040.4 965.6
21 15.02 штиль 0 н/о ясно -28.4 -30.2 84 -28 -28 1040.5 965.0
00 16.02 штиль 0 н/о ясно -29.6 -32.0 80 -30 -30 1040.2 964.4 -29.7 26
03 16.02 штиль 0 50 км 1/0
[Ci fib]
-18.9 -23.0 70 -19 -16 1035.9 963.4 -29.9
06 16.02 штиль 0 50 км 1/0
[Ci fib]
-5.9 -18.4 37 -6 -1 1029.3 960.6
09 16.02 СВ 2 50 км 1/0
[Ci fib]
-5.1 -19.0 33 -9 -8 1027.0 958.7
12 16.02 штиль 0 н/о ясно -13.2 -20.3 55 -13 -13 1028.7 958.3 -3.4
15 16.02 штиль 0 н/о ясно -21.4 -23.2 85 -21 -21 1030.4 957.6
18 16.02 штиль 0 н/о ясно -25.4 -27.2 85 -25 -25 1030.2 956.3
21 16.02 штиль 0 н/о ясно -27.8 -30.3 79 -28 -28 1030.2 955.7
00 17.02 штиль 0 н/о 6/0
[Ci fib]
-28.7 -31.2 79 -29 -29 1031.0 956.2 -29.1 26
03 17.02 штиль 0 50 км 10/0
[Ci]
-19.6 -22.9 75 -20 -17 1027.9 955.8
06 17.02 штиль 0 50 км 10/0
[Ac trans Ci fib]
-1.2 -15.9 32 -1 +3 1020.5 953.6
09 17.02 СВ 2 50 км 8/0
[Ci fib]
+0.5 -15.3 29 -2 -1 1017.9 951.5
12 17.02 штиль 0 н/о 3/0
[Ci fib]
-8.8 -17.4 50 -9 -9 1019.9 951.3 +0.9
15 17.02 штиль 0 н/о 3/0
[Ci fib]
-17.8 -20.4 80 -18 -18 1021.5 950.4
18 17.02 штиль 0 н/о 3/0
[Ci fib]
-21.2 -23.7 80 -21 -21 1021.7 949.6
21 17.02 штиль 0 н/о 6/0
[Ci]
-22.5 -25.0 80 -23 -23 1021.2 948.8
00 18.02 штиль 0 н/о 3/0
[Ci fib]
-24.5 -27.0 80 -25 -25 1021.2 948.2 -24.9 26
03 18.02 штиль 0 50 км 8/0
[Ci sp]
-16.3 -20.5 70 -16 -13 1018.5 948.0
06 18.02 СВ 2 50 км 8/0
[Ci fib]
-2.3 -18.7 27 -5 -2 1012.5 945.9
09 18.02 СВ 2 50 км 3/0
[Ci fib]
-3.2 -17.0 34 -6 -6 1012.6 945.7
12 18.02 штиль 0 н/о ясно -11.5 -16.8 65 -12 -12 1015.3 946.2 -0.6
15 18.02 штиль 0 н/о ясно -18.5 -20.4 85 -19 -19 1018.1 947.0
18 18.02 штиль 0 н/о ясно -21.8 -23.6 85 -22 -22 1020.1 948.0
21 18.02 штиль 0 н/о 1/0
[Ci fib]
-23.7 -26.3 79 -24 -24 1020.9 948.2
00 19.02 штиль 0 н/о 3/0
[Ac lent Ci fib]
-24.9 -27.4 80 -25 -25 1023.0 949.7 -25.0 26

 

Местоположение метеостанции Инга (Иркутская область, Россия): широта 52.97 долгота 101.90 высота над уровнем моря 543 м.

В архиве по умолчанию представлена погода в Инге за последнюю неделю. Архивные данные за месяц целиком и за предыдущие месяцы, начиная с января 2011 года, Вы можете получить, выбрав интересующий диапазон дат из раскрывающегося списка и нажав кнопку "Ввод!".


*Определитесь, кто Вы:
робот инопланетянин человек

Внимание! Время в таблицах - всемирное. Для получения местного времени необходимо прибавить поправку, которая равна 8 ч.

Смотрите также архив погоды в соседних городах и на ближайших метеорологических станциях:

Погода в Сараме (Иркутская область, Россия) (63 км)
Погода в Заларях (Иркутская область, Россия) (76 км)
Погода в Черемхово (Иркутская область, Россия) (77 км)
Погода в Зиме (Иркутская область, Россия) (107 км)
Погода в Дабадах (Иркутская область, Россия) (111 км)
Погода в Балаганске (Иркутская область, Россия) (136 км)
Погода в Ангарск (Иркутская область, Россия) (139 км)
Погода в Тунке (Бурятия, Россия) (144 км)
Погода в Кырене (Бурятия, Россия) (144 км)
Погода в Орлике (Бурятия, Россия) (150 км)

Пояснения к столбцам:

Ветер - указаны скорость ветра в м/с - средняя за 10 мин, порывы в срок и между сроками (в фигурных скобках) и направление, откуда дует ветер: С - северный, СВ - северо-восточный, В - восточный, ЮВ - юго-восточный, Ю - южный, ЮЗ - юго-западный, З - западный, СЗ - северо-западный.
Видимость - горизонтальная дальность видимости в метрах или километрах. При видимости от 1 до 10 км при отсутствии осадков обычно наблюдается дымка, при ухудшении видимости до 1 км и менее - туман. В сухую погоду видимость может ухудшаться дымом, пылью или мглою.
Явления - указаны атмосферные явления, наблюдавшиеся в срок или в последний час перед сроком; фигурными скобками обозначены явления, наблюдавшиеся между сроками (за 1-3 часа до срока); квадратными скобками обозначены град или гололедные отложения с указанием их диаметра в мм.
Облачность - указаны через наклонную черту общая и нижняя облачность в баллах и высота нижней границы облаков в метрах; квадратными скобками обозначены формы облаков: Ci - перистые, Cs - перисто-слоистые, Cc - перисто-кучевые, Ac - высококучевые, As - высокослоистые, Sc - слоисто-кучевые, Ns - слоисто-дождевые, Cu - кучевые, Cb - кучево-дождевые. Подробнее классификацию облаков см. в Атласе облаков (PDF).
T - Температура воздуха - температура, измеренная на высоте 2 м над землей.
Td - Температура точки росы - температура, при понижении до которой содержащийся в воздухе водяной пар достигнет насыщения.
f - Относительная влажность воздуха - влажноcть воздуха, измеренная на высоте 2 м над землей.
Te - Эффективная температура - температура, которую ощущает одетый по сезону человек в тени. Характеристика душности погоды. При расчете учитывается влияние влажности воздуха и скорости ветра на теплоощущения человека.
Tes - Эффективная температура на солнце - температура, которую ощущает человек, с поправкой на солнечный нагрев. Характеристика знойности погоды. Зависит от высоты солнца над горизонтом, облачности и скорости ветра. Ночью, в пасмурную погоду, а также при ветре 12 м/с и более поправка равна нулю.
P - Атмосферное давление - приведенное к уровню моря атмосферное давление.
Po - Атмосферное давление - измеренное на уровне метеостанции атмосферное давление.
Tmin - Минимальная температура - минимум температуры воздуха на высоте 2 м над землей.
Tmax - Максимальная температура - максимум температуры воздуха на высоте 2 м над землей.
R - Количество осадков - Количество выпавших осадков за период времени, мм. При наведении курсора мыши на число - период времени, за который выпало указанное количество осадков.
R24 - Количество осадков - Количество выпавших осадков за 24 часа, мм.
S - Снежный покров - Высота снежного покрова, см. При наведении курсора мыши на число - состояние снежного покрова и степень покрытия местности в баллах.